Temp
-13 -13 -13 -13 -13 -13 -14 -14 -16 -16 -16 -15 -14 -14 -13 -13 -12 -11 -11 -12 -12 -11 -11 -11 -10 -10 -10 -9 -9 -9 -8 -7 -7 -9 -9 -9 -8 -8 -8 -8 -8 -7 -6 -6 -5
-13 -13 -13 -13 -13 -13 -13 -13 -14 -15 -15 -14 -13 -13 -13 -12 -12 -12 -13 -11 -10 -11 -11 -11 -11 -10 -10 -9 -9 -9 -8 -8 -8 -9 -9 -10 -9 -9 -9 -9 -9 -8 -7 -6 -6
-13 -13 -13 -13 -13 -13 -12 -13 -13 -14 -14 -14 -13 -13 -13 -13 -12 -12 -11 -11 -10 -11 -11 -10 -10 -10 -10 -10 -9 -9 -8 -9 -9 -9 -8 -9 -9 -9 -9 -9 -8 -9 -8 -6 -6
-13 -13 -13 -13 -13 -12 -12 -12 -13 -13 -14 -14 -14 -13 -13 -13 -12 -12 -12 -11 -11 -10 -9 -9 -9 -10 -10 -10 -9 -9 -9 -10 -10 -9 -9 -9 -10 -9 -9 -9 -8 -8 -8 -7 -7
-13 -13 -13 -13 -13 -12 -12 -12 -12 -13 -13 -13 -13 -13 -13 -13 -12 -12 -12 -12 -11 -11 -10 -10 -10 -10 -10 -11 -10 -9 -9 -10 -11 -11 -9 -9 -9 -9 -9 -9 -9 -8 -8 -8 -8
-13 -13 -13 -13 -13 -12 -12 -12 -12 -12 -12 -12 -12 -12 -13 -13 -12 -12 -12 -12 -12 -11 -10 -10 -11 -11 -10 -9 -8 -9 -10 -9 -9 -9 -9 -8 -8 -7 -8 -8 -9 -9 -9 -8 -8
-13 -13 -13 -13 -12 -13 -12 -12 -12 -12 -12 -12 -12 -12 -13 -12 -12 -12 -12 -12 -12 -11 -11 -11 -11 -10 -10 -9 -9 -9 -9 -8 -8 -9 -8 -8 -8 -7 -8 -8 -8 -8 -8 -8 -9
-13 -13 -13 -13 -13 -13 -12 -12 -12 -12 -12 -12 -13 -13 -12 -13 -13 -13 -12 -12 -12 -12 -11 -11 -10 -10 -10 -9 -9 -9 -9 -9 -9 -9 -9 -9 -8 -8 -8 -8 -8 -9 -9 -9 -9
-13 -13 -14 -14 -13 -13 -12 -12 -12 -12 -12 -12 -12 -12 -12 -13 -13 -13 -13 -13 -12 -12 -12 -11 -10 -10 -10 -10 -10 -9 -9 -9 -10 -10 -10 -9 -8 -9 -10 -9 -8 -9 -9 -9 -9
-14 -14 -13 -14 -14 -13 -13 -12 -13 -12 -12 -12 -12 -12 -12 -12 -13 -13 -13 -13 -13 -12 -12 -11 -11 -11 -11 -11 -11 -11 -11 -11 -12 -11 -10 -10 -9 -9 -9 -8 -8 -8 -8 -9 -9
-14 -14 -13 -13 -13 -13 -13 -13 -13 -13 -13 -12 -12 -12 -12 -12 -12 -12 -12 -12 -12 -12 -12 -12 -12 -12 -12 -12 -12 -12 -12 -11 -12 -12 -11 -10 -9 -9 -9 -9 -8 -9 -9 -9 -9
-14 -14 -14 -13 -13 -13 -13 -13 -13 -13 -13 -13 -12 -12 -12 -12 -12 -12 -12 -12 -12 -12 -12 -12 -12 -13 -12 -12 -12 -12 -12 -11 -12 -12 -11 -11 -10 -10 -10 -10 -10 -9 -9 -9 -9
-14 -14 -14 -13 -13 -13 -13 -13 -13 -13 -13 -13 -13 -13 -13 -12 -12 -12 -12 -12 -12 -12 -12 -12 -12 -12 -12 -12 -12 -12 -12 -12 -11 -13 -12 -11 -10 -10 -11 -10 -10 -10 -9 -9 -10
-14 -14 -13 -13 -13 -13 -13 -14 -13 -13 -14 -14 -13 -13 -13 -13 -13 -12 -12 -13 -13 -12 -12 -12 -12 -12 -12 -12 -12 -11 -11 -11 -12 -11 -11 -12 -10 -11 -11 -11 -11 -10 -10 -10 -10
-14 -13 -13 -13 -13 -13 -14 -14 -14 -13 -14 -14 -13 -13 -13 -13 -13 -13 -13 -12 -13 -13 -13 -13 -12 -12 -12 -12 -11 -11 -12 -11 -11 -11 -11 -11 -11 -10 -11 -12 -12 -12 -11 -11 -10
-14 -13 -13 -13 -13 -14 -15 -14 -14 -14 -14 -14 -14 -14 -13 -14 -13 -13 -13 -13 -13 -13 -13 -13 -12 -13 -13 -13 -12 -12 -12 -12 -12 -12 -11 -12 -12 -11 -12 -12 -12 -13 -12 -12 -11
-14 -14 -13 -13 -13 -15 -15 -15 -14 -14 -14 -14 -14 -14 -14 -14 -14 -13 -13 -13 -13 -13 -13 -13 -13 -14 -14 -14 -13 -13 -13 -13 -13 -12 -12 -12 -12 -12 -12 -13 -13 -13 -13 -12 -12
-15 -14 -14 -13 -14 -14 -15 -15 -14 -14 -15 -14 -14 -14 -14 -14 -14 -13 -13 -14 -14 -14 -13 -13 -14 -14 -13 -13 -14 -14 -14 -14 -13 -13 -13 -13 -13 -13 -13 -13 -13 -13 -12 -13 -13
-15 -15 -14 -14 -14 -15 -15 -15 -14 -15 -15 -15 -14 -15 -14 -14 -14 -14 -14 -14 -14 -14 -14 -15 -15 -14 -14 -14 -14 -15 -15 -15 -14 -14 -14 -14 -14 -14 -14 -14 -14 -13 -14 -13 -14
-15 -15 -15 -14 -15 -15 -15 -15 -15 -15 -15 -15 -15 -15 -15 -15 -15 -15 -15 -15 -14 -14 -15 -15 -15 -15 -15 -15 -15 -16 -16 -16 -16 -15 -15 -14 -14 -14 -14 -15 -15 -14 -14 -14 -14
-16 -15 -15 -15 -15 -15 -15 -15 -15 -15 -15 -15 -15 -15 -15 -15 -15 -15 -15 -15 -15 -15 -15 -15 -15 -15 -15 -15 -14 -15 -15 -15 -15 -15 -15 -14 -14 -14 -14 -14 -15 -15 -15 -16 -14
-16 -16 -16 -15 -15 -15 -15 -15 -15 -15 -15 -14 -14 -14 -14 -14 -14 -14 -14 -14 -14 -14 -14 -14 -14 -15 -16 -15 -15 -15 -15 -15 -15 -15 -15 -15 -14 -14 -14 -14 -14 -15 -15 -15 -15
-17 -16 -16 -16 -16 -16 -16 -15 -15 -15 -15 -14 -14 -15 -14 -14 -14 -14 -14 -14 -14 -14 -14 -15 -14 -14 -15 -15 -15 -15 -15 -15 -15 -15 -14 -15 -14 -15 -15 -15 -15 -14 -15 -15 -15
-17 -17 -16 -16 -17 -16 -16 -15 -16 -15 -15 -14 -15 -15 -15 -15 -14 -14 -15 -15 -15 -15 -15 -15 -15 -15 -15 -15 -15 -15 -15 -15 -15 -15 -15 -14 -14 -15 -15 -15 -14 -14 -15 -16 -16
-17 -17 -17 -17 -17 -17 -16 -16 -16 -16 -16 -15 -15 -15 -15 -16 -15 -15 -15 -15 -15 -15 -15 -15 -15 -15 -15 -15 -15 -15 -15 -16 -15 -15 -15 -15 -14 -15 -15 -15 -16 -16 -17 -17 -18
-18 -17 -17 -17 -17 -16 -16 -16 -16 -17 -16 -16 -16 -16 -16 -16 -15 -15 -15 -15 -15 -15 -15 -16 -16 -16 -16 -15 -15 -15 -15 -15 -16 -16 -15 -16 -15 -16 -16 -17 -17 -18 -18 -18 -18
-18 -18 -17 -17 -17 -17 -17 -17 -17 -17 -17 -17 -16 -16 -16 -16 -15 -15 -15 -15 -15 -15 -15 -15 -16 -15 -16 -16 -16 -16 -16 -16 -16 -17 -17 -17 -17 -17 -17 -18 -18 -18 -18 -18 -18
Height
5720 5719 5714 5710 5708 5703 5700 5698 5698 5696 5697 5701 5710 5720 5729 5738 5746 5754 5761 5766 5772 5777 5785 5791 5797 5802 5810 5815 5821 5829 5834 5843 5847 5849 5855 5856 5859 5861 5863 5865 5866 5869 5873 5877 5879
5715 5713 5711 5707 5706 5703 5702 5700 5699 5699 5701 5705 5712 5721 5729 5736 5743 5750 5754 5762 5768 5775 5782 5788 5792 5799 5804 5810 5815 5822 5831 5842 5843 5846 5848 5848 5849 5854 5856 5860 5862 5863 5863 5868 5875
5711 5708 5707 5704 5703 5702 5702 5703 5703 5703 5704 5708 5714 5721 5728 5733 5741 5747 5753 5759 5765 5771 5776 5783 5789 5795 5803 5806 5812 5820 5829 5832 5832 5834 5834 5835 5842 5845 5849 5853 5857 5859 5861 5862 5865
5706 5704 5703 5702 5701 5701 5701 5703 5704 5706 5709 5711 5715 5721 5726 5732 5740 5743 5749 5756 5761 5768 5774 5780 5786 5792 5798 5803 5808 5813 5820 5822 5828 5831 5836 5839 5843 5845 5848 5851 5852 5854 5856 5858 5853
5699 5700 5699 5699 5698 5699 5700 5703 5705 5707 5710 5714 5718 5722 5728 5733 5737 5741 5747 5754 5758 5765 5770 5776 5782 5787 5793 5798 5801 5807 5813 5818 5823 5824 5828 5831 5835 5840 5843 5847 5848 5850 5850 5853 5855
5694 5694 5695 5695 5695 5697 5699 5701 5705 5707 5710 5713 5718 5722 5726 5730 5736 5741 5746 5750 5756 5761 5767 5772 5777 5781 5786 5791 5795 5800 5806 5810 5814 5816 5819 5822 5827 5828 5836 5839 5842 5845 5847 5847 5846
5688 5689 5692 5691 5693 5694 5697 5699 5703 5707 5710 5713 5717 5720 5724 5729 5734 5738 5743 5748 5752 5757 5763 5767 5772 5777 5782 5786 5788 5793 5799 5803 5808 5811 5813 5816 5820 5824 5832 5833 5835 5837 5837 5838 5838
5682 5684 5687 5687 5690 5691 5694 5697 5700 5705 5709 5713 5716 5720 5723 5729 5732 5736 5740 5744 5749 5753 5757 5760 5765 5772 5777 5781 5784 5789 5796 5800 5804 5806 5808 5812 5819 5821 5823 5825 5827 5828 5827 5828 5830
5678 5679 5682 5684 5686 5689 5691 5695 5697 5701 5706 5710 5714 5719 5723 5726 5729 5733 5737 5742 5745 5749 5752 5757 5763 5768 5773 5776 5780 5783 5789 5793 5799 5802 5803 5804 5807 5813 5812 5811 5814 5815 5819 5820 5821
5676 5676 5678 5680 5682 5685 5689 5692 5695 5699 5703 5707 5711 5718 5721 5723 5728 5731 5735 5740 5744 5747 5751 5755 5760 5765 5769 5773 5778 5780 5783 5786 5791 5790 5792 5795 5796 5800 5801 5802 5807 5811 5812 5810 5812
5674 5673 5674 5677 5678 5680 5686 5690 5695 5698 5699 5703 5707 5712 5716 5721 5724 5728 5733 5737 5741 5745 5749 5752 5756 5762 5767 5768 5770 5771 5774 5777 5784 5782 5784 5787 5788 5792 5793 5794 5798 5800 5800 5800 5801
5672 5670 5671 5674 5675 5678 5681 5686 5690 5693 5696 5698 5703 5707 5711 5716 5721 5723 5729 5735 5739 5742 5745 5749 5754 5758 5758 5761 5764 5767 5768 5772 5778 5776 5776 5780 5783 5783 5787 5788 5790 5793 5794 5796 5798
5672 5670 5669 5670 5672 5675 5679 5683 5684 5688 5693 5696 5699 5703 5707 5712 5716 5720 5724 5729 5733 5735 5740 5745 5749 5749 5753 5755 5759 5761 5762 5767 5772 5774 5772 5774 5777 5781 5783 5785 5784 5786 5788 5791 5793
5671 5669 5668 5667 5670 5671 5677 5681 5683 5685 5687 5692 5696 5700 5705 5707 5711 5715 5719 5725 5728 5732 5735 5738 5739 5743 5746 5749 5752 5755 5759 5761 5763 5767 5768 5767 5770 5775 5777 5775 5777 5779 5779 5781 5782
5670 5668 5667 5666 5667 5670 5676 5678 5680 5683 5686 5689 5691 5695 5699 5703 5708 5711 5714 5719 5723 5726 5731 5734 5735 5738 5741 5744 5745 5749 5750 5752 5754 5756 5759 5761 5760 5766 5768 5769 5769 5768 5768 5769 5770
5668 5666 5665 5664 5666 5669 5672 5674 5678 5682 5683 5686 5687 5689 5696 5699 5703 5707 5710 5713 5716 5718 5725 5726 5730 5733 5736 5738 5738 5741 5745 5746 5748 5750 5752 5754 5756 5757 5759 5761 5761 5759 5759 5759 5759
5666 5665 5663 5663 5665 5667 5670 5673 5676 5678 5681 5683 5684 5686 5690 5694 5698 5701 5706 5709 5712 5715 5720 5721 5724 5727 5728 5730 5731 5734 5736 5739 5741 5741 5743 5746 5747 5747 5747 5750 5749 5750 5751 5749 5749
5665 5664 5662 5662 5663 5665 5668 5672 5674 5676 5679 5681 5683 5685 5688 5691 5693 5697 5699 5701 5704 5707 5711 5715 5718 5718 5720 5723 5724 5727 5730 5732 5731 5732 5735 5736 5735 5740 5737 5739 5739 5738 5738 5738 5738
5664 5662 5662 5662 5662 5664 5667 5669 5672 5674 5677 5679 5681 5684 5686 5688 5691 5693 5695 5697 5699 5703 5706 5708 5710 5712 5714 5718 5721 5721 5722 5723 5724 5723 5724 5727 5729 5729 5728 5726 5726 5726 5725 5726 5725
5661 5661 5661 5661 5662 5664 5667 5668 5670 5673 5675 5677 5679 5681 5682 5684 5687 5689 5691 5694 5696 5699 5702 5704 5705 5707 5709 5711 5712 5712 5714 5714 5713 5713 5713 5713 5715 5718 5718 5717 5715 5714 5715 5715 5715
5657 5659 5659 5660 5662 5665 5666 5667 5668 5670 5673 5675 5677 5679 5681 5682 5684 5687 5689 5691 5693 5695 5697 5699 5700 5702 5702 5703 5703 5706 5705 5706 5708 5707 5705 5706 5708 5709 5709 5710 5709 5708 5708 5707 5706
5654 5656 5657 5658 5661 5662 5664 5666 5667 5669 5670 5673 5675 5678 5681 5682 5682 5684 5687 5689 5690 5692 5694 5696 5698 5699 5699 5698 5699 5700 5700 5699 5699 5701 5699 5699 5700 5698 5699 5701 5701 5699 5698 5698 5698
5652 5653 5654 5656 5658 5661 5662 5664 5666 5667 5670 5672 5674 5675 5677 5679 5682 5683 5685 5686 5687 5688 5690 5692 5693 5694 5694 5695 5694 5694 5694 5694 5693 5692 5691 5691 5691 5688 5690 5688 5688 5687 5688 5686 5684
5651 5651 5653 5654 5656 5658 5660 5661 5664 5666 5667 5670 5673 5673 5674 5675 5677 5679 5681 5683 5683 5684 5685 5686 5687 5688 5690 5688 5688 5688 5688 5688 5686 5684 5683 5683 5684 5680 5674 5674 5674 5675 5674 5674 5672
5647 5648 5649 5652 5653 5654 5656 5658 5661 5663 5664 5667 5669 5669 5671 5673 5673 5675 5677 5678 5679 5679 5680 5681 5681 5682 5683 5683 5682 5683 5683 5679 5677 5676 5672 5673 5672 5669 5663 5661 5661 5660 5659 5658 5658
5642 5643 5645 5647 5649 5651 5654 5657 5659 5660 5662 5663 5665 5666 5666 5667 5668 5670 5673 5673 5674 5675 5675 5676 5676 5675 5676 5676 5675 5675 5673 5672 5670 5666 5663 5658 5659 5653 5651 5649 5649 5647 5646 5646 5645
5635 5638 5640 5642 5645 5648 5650 5652 5654 5655 5658 5660 5661 5662 5661 5662 5663 5664 5666 5668 5670 5670 5670 5671 5670 5669 5670 5667 5667 5667 5665 5662 5659 5655 5652 5648 5646 5642 5640 5639 5639 5638 5637 5635 5634
Wind_Speed
20 20 18 15 13 10 12 10 10 12 18 22 29 34 35 36 34 36 37 43 45 47 50 45 40 37 42 45 42 37 51 48 45 39 36 37 37 37 39 44 45 48 46 42 41
20 19 17 14 10 4 5 9 7 10 19 26 31 33 35 34 34 37 38 41 41 43 45 46 42 42 41 42 44 43 39 42 42 37 36 38 42 42 42 42 46 46 47 46 42
22 18 15 12 8 6 2 3 3 10 23 30 33 35 36 33 34 35 37 39 40 42 44 43 43 43 41 41 44 42 35 34 41 45 49 50 50 46 44 43 43 43 44 40 39
21 17 15 13 9 8 7 7 9 11 15 23 28 30 29 31 32 37 37 38 39 40 39 40 43 45 44 41 42 39 37 40 37 39 44 45 36 39 40 39 40 37 37 39 42
20 18 14 13 11 10 11 11 11 14 16 17 20 22 24 27 31 34 35 37 38 39 39 39 42 43 45 45 47 45 42 44 41 41 41 43 45 43 44 44 47 45 45 46 44
19 18 17 15 13 12 14 15 16 16 18 20 20 22 24 25 26 29 29 33 34 36 38 38 37 39 41 43 45 44 42 45 46 46 47 49 46 47 46 48 48 47 47 46 45
18 17 18 12 16 14 16 18 18 20 21 22 23 23 23 23 22 24 26 27 29 31 33 35 38 39 40 41 44 43 42 43 44 45 46 47 48 48 44 45 47 47 48 46 45
16 14 18 15 19 16 16 19 20 20 20 21 22 23 23 20 22 25 27 28 29 30 33 37 39 40 39 41 41 40 39 37 37 40 40 42 39 40 42 42 40 42 46 47 47
15 12 19 16 18 19 16 18 21 21 22 22 22 21 21 23 25 26 27 28 30 30 32 34 34 34 34 36 37 38 37 35 32 32 37 42 45 41 42 47 49 50 48 50 50
12 12 19 18 14 22 19 17 19 21 23 23 23 23 23 25 23 25 24 25 28 30 32 33 31 31 32 32 31 31 32 32 26 34 40 44 47 46 48 51 47 48 49 51 49
11 13 15 19 17 16 23 17 17 17 19 23 24 24 25 23 24 24 25 27 27 28 29 29 28 26 23 26 28 32 33 34 28 35 40 42 46 46 47 49 48 45 48 48 46
9 9 13 19 20 16 16 26 22 20 21 24 23 23 24 25 25 26 26 26 26 27 28 27 24 24 29 30 30 32 34 34 29 36 42 41 43 44 44 46 45 44 45 45 42
10 7 8 17 21 21 20 17 20 28 20 22 24 25 25 25 25 28 27 27 30 31 29 27 28 31 30 31 32 33 35 34 32 34 39 40 40 38 38 40 43 42 41 40 34
12 12 8 10 21 24 19 19 17 15 25 26 21 20 23 26 26 26 26 25 25 27 29 30 32 32 33 33 33 33 33 34 34 35 38 41 39 36 38 41 42 41 39 35 36
13 13 9 8 12 16 15 18 18 16 14 26 27 25 24 24 26 25 27 27 26 27 27 27 31 33 32 31 35 34 34 36 38 39 38 39 41 37 38 40 41 42 41 41 44
11 10 8 7 6 15 16 17 16 15 14 13 19 31 28 24 25 23 23 26 29 32 27 33 32 31 30 31 35 35 34 36 37 37 39 38 39 41 40 39 41 46 46 47 46
10 9 7 6 6 14 16 16 16 13 11 12 11 14 24 32 28 24 24 27 26 27 26 27 26 27 29 32 34 34 35 36 38 38 38 35 35 37 36 29 36 38 41 44 46
9 8 6 4 7 13 18 18 16 13 12 15 14 13 11 14 19 23 18 27 39 33 30 27 28 32 33 33 33 32 34 36 39 39 38 37 39 34 37 34 36 39 40 41 43
11 7 5 4 7 14 19 17 14 14 17 16 15 13 11 12 13 13 15 16 17 23 32 37 41 40 39 36 34 36 37 39 40 43 43 42 39 38 35 38 38 39 46 45 45
12 9 7 5 9 14 16 16 16 23 21 14 11 10 10 11 13 14 14 13 13 13 13 14 18 20 25 30 34 36 38 39 41 42 41 39 33 25 27 32 36 36 35 36 38
11 11 10 8 10 19 15 17 14 20 14 11 12 9 8 9 11 11 11 9 10 8 9 13 13 14 14 16 19 20 23 24 26 29 31 30 28 28 30 30 32 32 33 33 36
9 11 11 10 12 20 19 18 18 16 14 15 13 13 10 9 8 8 8 6 6 8 9 12 12 14 15 19 18 21 24 27 28 29 31 34 35 37 36 34 35 36 38 39 39
7 6 10 12 12 15 16 15 13 14 15 15 13 13 13 13 13 12 11 11 13 15 15 15 16 18 20 23 24 26 27 29 32 35 37 39 41 42 40 40 42 44 43 46 46
11 9 6 8 11 18 20 17 13 14 17 16 14 13 14 15 16 16 16 15 16 17 18 19 20 22 22 25 27 28 29 31 35 39 40 42 41 45 49 50 51 51 51 50 52
15 11 8 10 11 17 16 16 11 12 13 14 12 13 13 14 15 16 16 16 17 17 19 20 22 23 24 26 29 30 30 34 38 40 44 43 43 44 47 48 47 47 48 48 47
20 18 17 17 16 16 16 12 13 11 12 13 12 12 14 16 17 16 15 16 17 18 18 18 20 23 23 26 28 29 31 33 35 39 42 43 42 44 44 41 33 32 33 32 34
25 23 22 20 19 20 16 13 15 17 16 15 14 14 16 18 18 17 16 15 15 15 15 15 19 22 20 24 26 27 29 33 35 36 36 38 37 37 36 32 29 29 27 29 31
Wind_Direction
303 297 301 305 302 320 337 345 271 225 184 172 181 183 185 192 198 204 202 206 207 211 224 219 216 214 217 222 224 218 216 209 208 208 216 224 223 227 228 232 239 243 247 250 254
299 292 292 297 295 293 334 335 315 200 172 168 170 175 184 190 197 201 204 200 201 210 212 226 224 218 224 227 227 222 216 213 210 207 213 216 225 228 230 230 238 243 247 252 254
298 286 275 284 280 254 221 176 248 212 181 175 176 181 188 190 199 201 198 196 197 206 210 214 226 227 224 231 237 229 214 216 207 210 211 211 219 221 228 233 236 246 251 262 268
295 272 261 270 262 242 199 199 182 181 196 189 188 191 193 195 199 202 199 197 198 202 207 211 220 223 227 230 239 243 238 240 237 235 226 222 221 229 236 243 247 255 260 265 274
290 264 267 247 248 228 205 203 197 186 184 193 195 197 201 202 203 205 202 200 200 202 207 210 215 219 223 226 230 233 234 239 239 247 248 242 236 234 240 247 252 260 267 269 270
285 264 262 225 236 220 212 199 201 192 183 180 187 193 197 204 205 205 206 204 206 204 204 211 215 218 222 224 230 232 231 232 235 239 239 244 245 248 245 244 251 256 260 263 266
284 263 252 233 225 218 212 204 204 201 194 190 189 189 191 190 193 194 196 200 204 206 208 211 214 217 219 222 226 229 229 231 233 237 241 244 246 248 251 254 255 259 262 262 260
284 260 243 252 213 214 209 203 205 208 208 203 201 202 198 194 194 192 191 191 195 200 207 211 214 218 220 225 230 232 233 235 233 236 241 244 247 249 249 250 251 249 249 251 254
285 258 233 248 207 212 208 206 202 203 208 210 209 207 206 208 206 203 201 199 198 201 206 210 215 218 221 226 232 234 235 235 237 238 240 240 240 240 242 240 236 239 244 250 252
286 264 230 239 238 197 208 203 203 203 206 208 212 212 212 215 214 213 213 209 211 210 211 214 215 218 221 224 231 238 237 233 229 234 232 236 239 240 241 246 244 242 242 243 247
287 263 248 229 236 216 203 207 199 203 207 208 209 209 212 214 219 218 214 218 219 222 224 227 226 227 234 231 229 234 237 233 227 237 236 235 240 242 241 243 243 246 248 245 246
313 269 253 230 227 229 214 210 211 206 205 209 205 207 213 213 214 223 223 222 227 230 232 233 234 233 232 234 234 237 240 241 229 235 240 238 238 243 245 245 247 245 248 252 252
314 304 261 237 221 226 217 214 210 213 210 209 213 205 206 211 214 215 219 223 224 227 231 233 231 234 236 238 238 238 242 243 240 238 253 254 251 253 258 258 257 255 254 259 260
305 299 290 259 224 224 224 222 221 227 216 207 208 207 209 214 214 212 216 218 224 228 230 228 232 234 237 242 246 248 250 252 252 250 252 259 262 261 261 265 268 272 271 265 260
301 293 285 280 229 212 216 221 220 211 211 208 209 208 205 208 214 216 218 219 220 226 230 231 234 236 239 239 246 246 246 248 246 248 250 252 258 259 255 257 264 268 269 270 269
306 290 281 282 214 191 196 208 212 210 206 209 224 221 207 208 211 211 219 220 220 224 222 231 235 240 242 244 249 251 249 252 256 259 259 259 262 265 262 261 258 261 267 270 272
305 296 290 265 239 187 191 200 205 209 204 201 204 202 216 217 223 211 228 231 226 228 225 229 229 230 234 241 247 252 256 258 257 257 261 262 263 265 271 262 260 261 262 263 265
290 296 289 274 220 192 188 193 201 187 195 208 202 192 174 177 200 211 219 227 226 226 225 225 228 234 238 238 246 250 252 256 260 263 265 265 264 266 268 264 262 261 261 262 264
268 266 274 236 208 183 175 187 189 189 195 201 197 200 218 218 212 210 213 216 219 224 232 237 235 237 241 246 246 248 251 255 260 262 264 263 264 266 264 268 266 262 261 258 261
253 247 241 221 190 164 174 169 188 195 192 188 218 229 217 209 206 206 212 220 226 222 210 222 235 239 246 248 250 254 257 255 260 265 269 275 279 269 258 254 258 261 261 262 265
246 237 230 212 184 172 161 178 182 177 183 201 193 189 174 169 166 173 186 188 181 187 193 200 219 235 239 240 245 245 256 259 261 264 273 279 278 275 271 269 270 271 268 263 263
245 226 221 204 191 192 193 207 209 216 211 200 189 189 196 204 209 214 212 220 233 233 229 232 229 227 246 255 260 262 267 270 269 272 275 278 277 281 280 279 276 272 272 268 262
239 234 213 208 212 213 212 209 216 211 203 208 205 201 207 223 230 238 242 242 247 253 252 252 253 248 249 258 264 267 268 270 275 277 277 279 283 285 282 277 272 270 269 269 269
226 224 215 201 207 216 220 227 221 224 232 225 226 228 231 237 242 242 245 249 251 253 255 254 254 255 257 261 263 268 270 273 275 275 278 277 278 279 277 274 273 275 271 269 269
230 221 213 222 211 221 226 215 221 218 224 224 217 219 219 228 236 238 235 238 245 249 254 259 262 263 262 264 269 273 277 277 278 280 281 282 280 278 276 275 275 274 274 274 270
229 224 213 223 227 226 239 231 230 229 230 228 233 231 234 239 240 245 250 248 246 248 250 256 261 265 269 272 271 273 274 277 281 281 283 283 282 278 277 278 281 278 275 274 274
226 224 219 217 224 230 239 245 241 241 235 237 243 249 250 249 253 254 254 253 251 252 251 255 263 269 274 278 285 287 285 286 285 283 281 279 278 275 273 272 277 284 289 284 280